www.pogodaiklimat.ru

Погода и климат >> Архив погоды >> Норвегия >> Мыкен


ПОГОДА на Мыкене

  • Прогноз погоды на Мыкене
  • Монитор погоды на Мыкене

АРХИВ ПОГОДЫ на Мыкене

Время (UTC), дата Ветер
(напр.,м/с)
 
Видим.   Явления Облачность Т
(С)
Тd
(С)
f
(%)
Тe
(С)
Тes
(С)
Комфортность P
(гПа)
Po
(гПа)
Тmin
(С)
Tmax
(С)
R
(мм)
R24
(мм)
S
(см)
10 11.06 С 9-10
{11}
н/о н/о +8.1 +2.2 66 +3 +3 1029.8 1027.7
11 11.06 С 9-11
{11}
н/о н/о +8.1 +2.2 66 +3 +3 1030.2 1028.1
12 11.06 С 10-11
{11}
50 км 3/1 300 м
[Cu hum Ac As]
+8.2 +2.0 65 +3 +4 1030.2 1028.1
13 11.06 С 11-12
{12}
н/о н/о +8.3 +1.0 60 +3 +3 1030.1 1028.0
14 11.06 С 10-12
{12}
н/о н/о +8.5 +1.9 63 +4 +4 1030.3 1028.2
15 11.06 С 10-11
{12}
50 км 3/1 300 м
[Cu hum Ac As]
+8.7 +2.7 66 +4 +4 1030.4 1028.3
16 11.06 С 10-11
{11}
н/о н/о +8.8 +3.0 67 +4 +4 1030.6 1028.5
17 11.06 С 9-11
{11}
н/о н/о +8.9 +4.1 72 +4 +4 1030.8 1028.7
18 11.06 С 10-12
{12}
50 км 4/1 300 м
[Cu hum Cs]
+8.9 +4.5 74 +4 +4 1030.8 1028.7 +7.6 +9.0
19 11.06 С 11-12
{12}
н/о н/о +8.7 +4.5 75 +4 +4 1030.6 1028.5
20 11.06 С 10-12
{12}
н/о н/о +8.6 +4.4 75 +4 +4 1030.7 1028.6
21 11.06 С 11-13
{13}
50 км 4/1 300 м
[Cu hum Ac As Ci fib]
+8.3 +4.9 79 +3 +3 1030.7 1028.6
22 11.06 С 10-11
{12}
н/о н/о +8.1 +4.9 80 +3 +3 1030.5 1028.4
23 11.06 С 11-12
{12}
н/о н/о +8.0 +4.6 79 +3 +3 1030.4 1028.3
00 12.06 С 10-12
{13}
50 км 4/1 300 м
[Cu hum Ac As Ci fib]
+7.9 +4.7 80 +3 +3 1030.2 1028.1
01 12.06 С 10-12
{12}
н/о н/о +7.8 +4.8 81 +3 +3 1029.7 1027.6
02 12.06 С 10-11
{11}
н/о н/о +7.9 +4.9 81 +3 +3 1029.4 1027.3
03 12.06 С 10-11
{11}
н/о н/о +7.9 +4.7 80 +3 +3 1029.2 1027.1
04 12.06 С 10-11
{11}
н/о н/о +7.9 +4.7 80 +3 +3 1029.1 1027.0
05 12.06 С 10-11
{11}
н/о н/о +8.1 +5.1 81 +3 +3 1028.7 1026.6
06 12.06 С 10
{12}
60 км 3/0 2000 м
[Ac trans Ci fib]
+8.1 +4.9 80 +3 +3 1028.5 1026.4 +7.8 +8.9
07 12.06 С 9-11
{11}
н/о н/о +8.5 +5.4 81 +4 +4 1028.3 1026.2
08 12.06 С 10-11
{11}
н/о н/о +8.4 +5.3 81 +3 +3 1027.9 1025.8
09 12.06 С 9-11
{11}
60 км 4/0 2000 м
[Ac As Ci fib]
+8.5 +5.6 82 +4 +4 1027.8 1025.7
10 12.06 С 9-11
{11}
н/о н/о +8.5 +5.3 80 +4 +4 1027.4 1025.3
11 12.06 С 10-11
{11}
н/о н/о +8.4 +5.0 79 +3 +3 1026.9 1024.8
12 12.06 С 10-11
{12}
>70 км 4/1 300 м
[Cu hum Ac As Ci fib]
+8.5 +4.5 76 +4 +4 1026.5 1024.4
13 12.06 С 10-11
{12}
н/о н/о +8.8 +4.8 76 +4 +4 1025.8 1023.7
14 12.06 С 10-12
{12}
н/о н/о +8.7 +4.3 74 +4 +4 1025.0 1022.9
15 12.06 С 11-12
{12}
>70 км 3/0 2000 м
[Ac As Ci fib]
+8.9 +4.9 76 +4 +4 1024.4 1022.3
16 12.06 С 11-12
{13}
н/о н/о +9.0 +4.8 75 +4 +4 1023.7 1021.6
17 12.06 С 10-12
{13}
н/о н/о +9.2 +5.0 75 +5 +5 1023.4 1021.3
18 12.06 С 10-12
{13}
>70 км 4/1 300 м
[Cu hum Ac trans Ci fib]
+9.3 +4.9 74 +5 +5 1022.7 1020.6 +8.1 +9.3
19 12.06 С 11-12
{12}
н/о н/о +9.2 +4.6 73 +4 +4 1022.1 1020.0
20 12.06 С 11-13
{13}
н/о н/о +9.1 +5.5 78 +4 +4 1021.5 1019.4
21 12.06 СВ 11-13
{13}
50 км 8/0 2000 м
[Ac As]
+9.2 +5.9 80 +4 +4 1021.2 1019.1
22 12.06 СВ 11-12
{13}
н/о н/о +9.1 +6.6 84 +4 +4 1020.9 1018.8
23 12.06 С 8-10
{12}
н/о н/о +9.2 +6.8 85 +5 +5 1021.2 1019.1
00 13.06 С 8-10
{13}
50 км 9/0 2000 м
[Ac As]
+9.1 +6.7 85 +5 +5 1020.7 1018.6
01 13.06 СВ 7-8
{9}
н/о н/о +9.3 +7.6 89 +5 +5 1020.7 1018.6
02 13.06 СВ 6-7
{8}
н/о н/о +9.4 +8.0 91 +6 +6 1020.2 1018.1
03 13.06 СВ 4-5
{7}
н/о н/о +9.7 +7.7 87 +7 +7 1019.6 1017.5
04 13.06 ЮВ 8-9
{10}
н/о н/о +11.9 +4.9 62 +9 +9 1019.4 1017.3
05 13.06 В 9-11
{12}
н/о н/о +12.1 +3.9 57 +9 +9 1019.1 1017.0
06 13.06 В 10
{14}
40 км 9/0 2000 м
[Ac As]
+11.7 +3.2 56 +8 +8 1019.3 1017.2 +9.0 +12.4
07 13.06 ЮВ 8-10
{11}
н/о н/о +11.7 +2.7 54 +9 +9 1019.2 1017.1
08 13.06 ЮВ 9-11
{11}
н/о н/о +11.5 +4.5 62 +8 +8 1019.1 1017.0
09 13.06 ЮВ 7-8
{10}
30 км 9/0 2000 м
[Ac As]
+11.3 +5.6 68 +8 +9 1019.5 1017.4
10 13.06 В 5-7
{7}
н/о н/о +12.0 +6.3 68 +10 +10 1019.1 1017.0
11 13.06 В 9-10
{10}
н/о н/о +13.4 +6.3 62 +11 +11 1018.9 1016.9
12 13.06 СВ 9-10
{11}
50 км 8/0
[Ac As]
+11.2 +6.9 75 +7 +8 1018.8 1016.7
13 13.06 С 9-10
{10}
н/о н/о +11.5 +6.2 70 +8 +8 1018.5 1016.4
14 13.06 СВ 9-10
{11}
н/о н/о +11.5 +7.2 75 +8 +8 1018.0 1015.9
15 13.06 СВ 10-11
{11}
>70 км 6/1 300 м
[Cu hum Ac As Cc]
+12.3 +6.6 68 +9 +9 1017.5 1015.4
16 13.06 СВ 9-10
{11}
н/о н/о +11.8 +7.5 75 +8 +8 1017.5 1015.4
17 13.06 СВ 8-9
{10}
н/о н/о +11.8 +7.7 76 +9 +9 1017.2 1015.1
18 13.06 СВ 8-9
{11}
>70 км 4/1 300 м
[St Ac trans Ci fib]
+11.7 +8.2 79 +8 +9 1017.1 1015.0 +10.9 +13.5
19 13.06 СВ 8-9
{9}
н/о н/о +11.3 +8.4 82 +8 +8 1017.0 1014.9
20 13.06 СВ 6-8
{9}
н/о н/о +11.4 +8.3 81 +8 +8 1017.3 1015.2
21 13.06 СВ 3-4
{7}
>70 км 4/1 300 м
[St Ac As Cc]
+11.2 +8.4 83 +9 +9 1017.6 1015.5
22 13.06 СВ 4-5
{5}
н/о н/о +10.8 +8.6 86 +8 +8 1017.8 1015.7
23 13.06 ЮВ 4-5
{5}
н/о н/о +13.6 +6.0 60 +12 +12 1017.9 1015.9
00 14.06 ЮВ 5-7
{9}
>70 км 6/0 2000 м
[Ac As Cc]
+13.6 +6.2 61 +12 +12 1018.0 1016.0
01 14.06 ЮВ 7-9
{9}
н/о н/о +13.9 +6.0 59 +12 +12 1017.6 1015.6
02 14.06 Ю 6-8
{9}
н/о н/о +14.0 +6.1 59 +12 +12 1017.9 1015.9
03 14.06 ЮЗ 3-4
{8}
н/о н/о +13.5 +7.3 66 +12 +12 1018.2 1016.2
04 14.06 З 3-3
{4}
н/о н/о +13.5 +7.7 68 +12 +12 1018.4 1016.4
05 14.06 ЮЗ 3-3
{3}
н/о н/о +13.4 +7.8 69 +12 +12 1018.5 1016.5
06 14.06 З 3
{9}
>70 км 4/0 2000 м
[Ac As]
+14.0 +8.0 67 +13 +16 1018.2 1016.2 +10.7 +14.5
07 14.06 СЗ 2-3
{3}
н/о н/о +15.0 +8.0 63 +15 +15 1018.1 1016.1
08 14.06 С 3-4
{4}
н/о н/о +13.4 +7.8 69 +12 +12 1018.6 1016.6
09 14.06 СВ 3-4
{5}
50 км 6/0 2000 м
[Ac As]
+12.4 +8.9 79 +11 +16 1018.9 1016.8
10 14.06 С 3-4
{4}
н/о н/о +14.3 +7.8 65 +13 +13 1018.7 1016.7
11 14.06 С 3-4
{5}
н/о н/о +14.2 +7.3 63 +13 +13 1018.6 1016.6
12 14.06 СЗ 4-6
{6}
50 км 5/0 2000 м
[Ac As]
+14.4 +9.4 72 +13 +18 1018.5 1016.5
13 14.06 С 4-6
{6}
н/о н/о +12.3 +9.1 81 +10 +10 1018.4 1016.3
14 14.06 С 2-3
{6}
н/о н/о +13.0 +9.3 78 +12 +12 1018.0 1016.0
15 14.06 СЗ 3-6
{6}
50 км 4/0 2000 м
[Ac As Ci fib]
+12.9 +9.4 79 +12 +16 1017.7 1015.7
16 14.06 С 5-6
{6}
н/о н/о +12.7 +9.2 79 +11 +11 1017.3 1015.3
17 14.06 С 5-6
{7}
н/о н/о +11.6 +9.2 85 +9 +9 1017.3 1015.2
18 14.06 С 4-6
{7}
50 км 9/0 2000 м
[Ac As Cc]
+11.9 +9.3 84 +10 +10 1017.1 1015.0 +11.6 +15.3
19 14.06 С 5-7
{7}
н/о н/о +11.4 +9.2 86 +9 +9 1017.0 1014.9
20 14.06 С 6-7
{7}
н/о н/о +11.3 +8.9 85 +8 +8 1017.0 1014.9
21 14.06 С 6-7
{7}
50 км 9/0 2000 м
[Ac As]
+11.2 +8.8 85 +8 +8 1017.1 1015.0
22 14.06 -7
{7}
н/о н/о +11.1 +8.7 85 1017.1 1015.0
23 14.06 С 5-6
{7}
н/о н/о +10.9 +8.7 86 +8 +8 1017.2 1015.1
00 15.06 С 5-6
{7}
50 км 8/0 2000 м
[Ac As]
+10.7 +8.5 86 +8 +8 1017.2 1015.1
01 15.06 С 6-7
{7}
н/о н/о +10.6 +8.2 85 +7 +7 1017.2 1015.1
02 15.06 -7
{7}
н/о н/о +10.5 +8.1 85 1017.2 1015.1
03 15.06 С 5-7
{7}
н/о н/о +10.6 +7.8 83 +8 +8 1017.3 1015.2
04 15.06 -7
{7}
н/о н/о +10.8 +7.5 80 1017.5 1015.4
05 15.06 -6
{7}
н/о н/о +10.5 +7.2 80 1017.6 1015.5
06 15.06 С 6
{7}
50 км 6/0 2000 м
[Ac As]
+10.5 +7.6 82 +7 +8 1017.8 1015.7 +10.3 +11.8
07 15.06 С 4-5
{6}
н/о н/о +11.1 +7.4 78 +9 +9 1018.2 1016.1
08 15.06 С 4-5
{5}
н/о н/о +11.0 +7.3 78 +9 +9 1018.6 1016.5
09 15.06 СЗ 3-4
{5}
50 км 4/0 2000 м
[Ac As Ci fib]
+11.3 +8.2 81 +9 +16 1018.7 1016.6
10 15.06 СЗ 5-6
{6}
н/о н/о +10.8 +7.9 82 +8 +8 1019.1 1017.0
11 15.06 СЗ 5-6
{6}
н/о н/о +10.6 +7.8 83 +8 +8 1019.2 1017.1
12 15.06 СЗ 5-6
{6}
50 км 4/1 300 м
[St Ac As Ci ing]
+10.8 +7.5 80 +8 +13 1019.5 1017.4
13 15.06 СЗ 5-5
{6}
н/о н/о +10.6 +7.3 80 +8 +8 1019.7 1017.6
14 15.06 СЗ 5-6
{6}
н/о н/о +10.7 +7.4 80 +8 +8 1019.6 1017.5
15 15.06 С 4-5
{6}
50 км 3/1 300 м
[St Ci fib]
+10.1 +7.2 82 +7 +12 1019.5 1017.4
16 15.06 С 5-6
{7}
н/о н/о +9.7 +6.8 82 +7 +7 1019.3 1017.2
17 15.06 С 5-6
{7}
н/о н/о +9.1 +6.2 82 +6 +6 1018.9 1016.8
18 15.06 С 4-6
{7}
20 км 4/4 300 м
[St]
+8.8 +6.1 83 +6 +6 1018.8 1016.7 +8.7 +11.5
19 15.06 С 5-7
{7}
н/о н/о +8.4 +6.0 85 +5 +5 1018.7 1016.6
20 15.06 С 6-6
{7}
н/о н/о +8.0 +5.8 86 +4 +4 1018.4 1016.3
21 15.06 С 4-5
{7}
15 км 8/6 300 м
[St Ci fib]
+7.7 +5.8 88 +4 +4 1018.4 1016.3
22 15.06 СЗ 5-7
{7}
н/о н/о +7.3 +5.6 89 +3 +3 1018.1 1016.0
23 15.06 С 4-6
{7}
н/о н/о +7.4 +5.9 90 +4 +4 1017.9 1015.8
00 16.06 С 4-6
{7}
15 км 9/9 300 м
[St]
+7.7 +6.0 89 +4 +4 1017.7 1015.6
01 16.06 С 5-7
{7}
н/о н/о +7.7 +6.0 89 +4 +4 1017.1 1015.0
02 16.06 С 6-8
{8}
н/о н/о +7.5 +5.8 89 +3 +3 1016.3 1014.2
03 16.06 С 6-8
{9}
н/о н/о +7.5 +5.7 88 +3 +3 1016.1 1014.0
04 16.06 СВ 4-5
{7}
н/о н/о +7.7 +5.5 86 +4 +4 1016.0 1013.9
05 16.06 СВ 4-5
{6}
н/о н/о +8.4 +6.4 87 +5 +5 1015.7 1013.6
06 16.06 СВ 3-4
{9}
н/о н/о +9.8 +7.1 83 +8 +8 1015.3 1013.2 +7.2 +9.8
07 16.06 СВ 6-8
{8}
н/о н/о +9.6 +6.9 83 +6 +6 1014.8 1012.7
08 16.06 С 5-7
{8}
н/о н/о +9.4 +6.7 83 +6 +6 1014.5 1012.4
09 16.06 С 6-7
{7}
15 км 9/9 300 м
[St]
+9.7 +6.8 82 +6 +7 1014.4 1012.3
10 16.06 -7
{8}
н/о н/о +9.6 +6.3 80 1014.1 1012.0
11 16.06 С 8-8
{8}
н/о н/о +9.3 +6.4 82 +5 +5 1013.7 1011.6
12 16.06 С 9-10
{10}
20 км 4/1 300 м
[St Ac As]
+9.4 +6.5 82 +5 +6 1013.2 1011.1
13 16.06 С 8-9
{10}
н/о н/о +9.7 +7.0 83 +6 +6 1012.7 1010.6
14 16.06 С 7-8
{8}
н/о н/о +10.0 +7.3 83 +6 +6 1012.3 1010.2
15 16.06 С 7-8
{8}
20 км 3/1 300 м
[St Ci ing]
+10.4 +8.0 85 +7 +8 1011.8 1009.7
16 16.06 С 7-9
{9}
н/о н/о +10.6 +8.5 87 +7 +7 1011.3 1009.2
17 16.06 С 8-8
{8}
н/о н/о +10.5 +8.4 87 +7 +7 1010.8 1008.7
18 16.06 С 6-8
{10}
20 км 3/3 300 м
[St]
+10.4 +8.2 86 +7 +8 1010.8 1008.7 +9.1 +10.8
19 16.06 СЗ 7-8
{8}
н/о н/о +10.3 +8.1 86 +7 +7 1010.6 1008.5
20 16.06 СЗ 6-7
{8}
н/о н/о +10.1 +8.0 87 +7 +7 1010.6 1008.5
21 16.06 СЗ 5-6
{7}
20 км 4/1 300 м
[St Ac As Ci ing]
+10.0 +8.1 88 +7 +7 1010.8 1008.7
22 16.06 СЗ 4-5
{6}
н/о н/о +9.7 +8.0 89 +7 +7 1010.8 1008.7
23 16.06 З 3-4
{4}
н/о н/о +9.5 +8.0 90 +7 +7 1011.1 1009.0
00 17.06 З 3-5
{8}
15 км 10/10 300 м
[St]
+9.2 +7.6 90 +7 +7 1011.2 1009.1
01 17.06 ЮЗ 4-6
{6}
н/о н/о +8.6 +7.1 90 +5 +5 1011.5 1009.4
02 17.06 ЮЗ 4-7
{7}
н/о н/о +7.8 +6.3 90 +4 +4 1011.6 1009.5
03 17.06 ЮЗ 5-7
{8}
н/о н/о +7.7 +5.8 88 +4 +4 1011.8 1009.7
04 17.06 ЮЗ 4-6
{6}
н/о н/о +8.0 +5.6 85 +5 +5 1011.8 1009.7
05 17.06 ЮЗ 5-7
{7}
н/о н/о +8.2 +5.8 85 +5 +5 1011.8 1009.7
06 17.06 ЮЗ 5-7
{8}
н/о н/о +8.6 +5.7 82 +5 +5 1011.8 1009.7 +7.6 +10.4
07 17.06 ЮЗ 4-6
{7}
н/о н/о +8.8 +6.1 83 +6 +6 1011.7 1009.6
08 17.06 ЮЗ 6-8
{8}
н/о н/о +8.8 +5.9 82 +5 +5 1012.1 1010.0
09 17.06 ЮЗ 5-7
{8}
15 км 10/10 300 м
[St]
+8.9 +6.4 84 +5 +5 1012.2 1010.1
10 17.06 ЮЗ 6-7
{8}
н/о н/о +9.0 +6.6 85 +5 +5 1012.2 1010.1
11 17.06 ЮЗ 5-6
{7}
н/о н/о +9.1 +6.6 84 +6 +6 1012.5 1010.4
12 17.06 ЮЗ 4-7
{8}
15 км 10/10 300 м
[St]
+9.3 +6.9 85 +6 +6 1012.6 1010.5
13 17.06 ЮЗ 5-8
{8}
н/о н/о +9.4 +6.3 81 +6 +6 1012.5 1010.4
14 17.06 ЮЗ 5-7
{8}
н/о н/о +9.8 +6.9 82 +7 +7 1012.5 1010.4
15 17.06 ЮЗ 6-8
{8}
10 км слаб. дождь 10/3 300 м
[Frnb As op]
+9.3 +7.9 91 +5 +5 1012.4 1010.3
16 17.06 ЮЗ 5-7
{7}
н/о н/о +9.6 +8.4 92 +6 +6 1012.3 1010.2 0.2
17 17.06 Ю 4-5
{7}
н/о н/о +9.7 +8.3 91 +7 +7 1012.1 1010.0
18 17.06 Ю 5-7
{8}
15 км {дождь} 10/10 300 м
[Sc]
+9.9 +8.7 92 +7 +7 1011.7 1009.6 +8.6 +10.0 0.2
19 17.06 Ю 5-6
{7}
н/о н/о +9.9 +9.0 94 +7 +7 1011.4 1009.3
20 17.06 Ю 5-6
{7}
н/о н/о +9.8 +9.2 96 +6 +6 1011.0 1008.9
21 17.06 Ю 4-6
{7}
10 км слаб. дождь 10/3 300 м
[Frnb As op]
+9.9 +9.3 96 +7 +7 1011.0 1008.9
22 17.06 Ю 3-4
{6}
н/о н/о +9.9 +9.3 96 +8 +8 1010.8 1008.7
23 17.06 Ю 3-4
{4}
н/о н/о +10.0 +9.2 95 +8 +8 1010.6 1008.5
00 18.06 Ю 2-2
{7}
15 км {ливн. осадки, дождь} 9/1 300 м
[Cb calv Ac cuf]
+9.9 +9.1 95 +8 +8 1010.2 1008.1
01 18.06 З 1-1
{2}
н/о н/о +9.8 +9.2 96 +9 +9 1009.9 1007.8
02 18.06 С 1-1
{2}
н/о н/о +9.9 +9.3 96 +9 +9 1009.5 1007.4
03 18.06 В 2-2
{3}
н/о н/о +10.1 +9.5 96 +8 +8 1009.2 1007.1
05 18.06 В 1-1
{2}
н/о н/о +10.7 +9.3 91 +10 +10 1008.8 1006.8
06 18.06 ЮВ 1
{3}
20 км 9/1 300 м
[Cb calv Ac cuf]
+10.6 +8.9 89 +10 +12 1009.0 1007.0 +9.7 +11.0
07 18.06 Ю 2-3
{3}
н/о н/о +10.7 +9.1 90 +9 +9 1009.2 1007.2
08 18.06 Ю 5-6
{6}
н/о н/о +10.3 +9.1 92 +7 +7 1009.4 1007.3 0.8
09 18.06 Ю 5-7
{7}
10 км слаб. дождь 10/3 300 м
[Frnb As op]
+10.3 +9.4 94 +7 +8 1009.0 1007.0 2
10 18.06 ЮВ 5-7
{8}
н/о н/о +11.2 +10.0 92 +8 +8 1009.0 1007.0 0.4

 

Местоположение метеостанции Мыкен (Норвегия): широта 66.77 долгота 12.48 высота над уровнем моря 17 м.

В архиве по умолчанию представлена погода на Мыкене за последнюю неделю. Архивные данные за месяц целиком и за предыдущие месяцы, начиная с января 2011 года, Вы можете получить, выбрав интересующий диапазон дат из раскрывающегося списка и нажав кнопку "Ввод!".


*Определитесь, кто Вы:
робот инопланетянин человек

Внимание! Время в таблицах - всемирное. Для получения местного времени необходимо прибавить поправку, которая равна 1 ч.

Смотрите также архив погоды в соседних городах и на ближайших метеорологических станциях:

Погода в Солвер III (Норвегия) (45 км)
Погода в Рейпе (Норвегия) (53 км)
Погода в Рост аэропорту (Норвегия) (85 км)
Погода в Скамдале (Норвегия) (86 км)
Погода в Сельджеля (Норвегия) (86 км)
Погода в Саннесшёэн аэропорту (Норвегия) (90 км)
Погода в Аэропорту Mo i Rana (Норвегия) (93 км)
Погода в Хеллигвере (Норвегия) (93 км)
Погода в Аэропорту Vaeroy Heliport (Норвегия) (98 км)
Погода в Бодо (Норвегия) (99 км)

Пояснения к столбцам:

Ветер - указаны скорость ветра в м/с - средняя за 10 мин, порывы в срок и между сроками (в фигурных скобках) и направление, откуда дует ветер: С - северный, СВ - северо-восточный, В - восточный, ЮВ - юго-восточный, Ю - южный, ЮЗ - юго-западный, З - западный, СЗ - северо-западный.
Видимость - горизонтальная дальность видимости в метрах или километрах. При видимости от 1 до 10 км при отсутствии осадков обычно наблюдается дымка, при ухудшении видимости до 1 км и менее - туман. В сухую погоду видимость может ухудшаться дымом, пылью или мглою.
Явления - указаны атмосферные явления, наблюдавшиеся в срок или в последний час перед сроком; фигурными скобками обозначены явления, наблюдавшиеся между сроками (за 1-3 часа до срока); квадратными скобками обозначены град или гололедные отложения с указанием их диаметра в мм.
Облачность - указаны через наклонную черту общая и нижняя облачность в баллах и высота нижней границы облаков в метрах; квадратными скобками обозначены формы облаков: Ci - перистые, Cs - перисто-слоистые, Cc - перисто-кучевые, Ac - высококучевые, As - высокослоистые, Sc - слоисто-кучевые, Ns - слоисто-дождевые, Cu - кучевые, Cb - кучево-дождевые. Подробнее классификацию облаков см. в Атласе облаков (PDF).
T - Температура воздуха - температура, измеренная на высоте 2 м над землей.
Td - Температура точки росы - температура, при понижении до которой содержащийся в воздухе водяной пар достигнет насыщения.
f - Относительная влажность воздуха - влажноcть воздуха, измеренная на высоте 2 м над землей.
Te - Эффективная температура - температура, которую ощущает одетый по сезону человек в тени. Характеристика душности погоды. При расчете учитывается влияние влажности воздуха и скорости ветра на теплоощущения человека.
Tes - Эффективная температура на солнце - температура, которую ощущает человек, с поправкой на солнечный нагрев. Характеристика знойности погоды. Зависит от высоты солнца над горизонтом, облачности и скорости ветра. Ночью, в пасмурную погоду, а также при ветре 12 м/с и более поправка равна нулю.
P - Атмосферное давление - приведенное к уровню моря атмосферное давление.
Po - Атмосферное давление - измеренное на уровне метеостанции атмосферное давление.
Tmin - Минимальная температура - минимум температуры воздуха на высоте 2 м над землей.
Tmax - Максимальная температура - максимум температуры воздуха на высоте 2 м над землей.
R - Количество осадков - Количество выпавших осадков за период времени, мм. При наведении курсора мыши на число - период времени, за который выпало указанное количество осадков.
R24 - Количество осадков - Количество выпавших осадков за 24 часа, мм.
S - Снежный покров - Высота снежного покрова, см. При наведении курсора мыши на число - состояние снежного покрова и степень покрытия местности в баллах.